Regional Weather Roundup
Issued by NWS

Home | Current Version | Previous Version | Graphics & Text | Print | Product List | Glossary On
Versions: 1 2 3 4 5 6 7 8 9 10 11 12 13 14 15 16 17 18 19 20 21 22 23 24 25 26 27 28 29 30 31 32 33 34 35 36 37 38 39 40 41 42 43 44 45 46 47 48 49 50
000
ASUS43 KDMX 212201
RWRIA

WEATHER ROUNDUP FOR IOWA
NATIONAL WEATHER SERVICE DES MOINES IA
500 PM CDT SUN MAY 21 2017

NOTE: "FAIR" INDICATES FEW OR NO CLOUDS BELOW 12,000 FEET WITH NO
SIGNIFICANT WEATHER AND/OR OBSTRUCTIONS TO VISIBILITY.

* - THESE STATIONS ARE NOT NWS STATIONS...THUS NOT UNDER NWS
QUALITY CONTROL.  THEY ALSO DO NOT REPORT WEATHER SUCH
AS PRECIPITATION OR FOG.

IAZ001>003-012>014-020>022-031>034-043>046-212300-
   NORTHWEST IOWA

CITY           SKY/WX    TMP DP  RH WIND       PRES   REMARKS
CARROLL *      CLOUDY    57  45  62 NW15G26   30.03F
CHEROKEE *     PTSUNNY   55  43  64 NW16G24   30.02F
DENISON *      PTSUNNY   57  45  62 NW20G26   30.06R
LE MARS *      PTSUNNY   57  43  58 NW21G31   30.04S
ORANGE CITY *  PTSUNNY   55  46  71 NW18G25   30.02S
SHELDON *      PTSUNNY   54  43  66 W23G32      N/A
SIOUX CITY     MOSUNNY   61  45  55 NW21      30.04S
SPENCER        CLOUDY    53  41  63 W23G37    30.00S
STORM LAKE *     N/A     54  43  66 NW21G31   30.02S
$$

IAZ055>058-069>071-079>083-090>094-212300-
   SOUTHWEST IOWA

CITY           SKY/WX    TMP DP  RH WIND       PRES   REMARKS
ATLANTIC *     MOSUNNY   61  46  59 NW17      30.05F
AUDUBON *      PTSUNNY   59  46  63 NW10G21   30.05F
CLARINDA *     MOSUNNY   64  45  48 NW21G30   30.08F
COUNCIL BLFS * MOSUNNY   64  41  42 NW20G32   30.05S
CRESTON *      PTSUNNY   61  45  55 NW18G26   30.06F
HARLAN  *      PTSUNNY   63  45  51 W24G32    30.08S
LAMONI         PTSUNNY   62  45  53 W23       30.06S
RED OAK *      MOSUNNY   66  45  45 NW15G24   30.06S
SHENANDOAH *   MOSUNNY   66  43  42 NW14G23   30.07F
$$

IAZ047>049-059>061-072>074-084-212300-
   CENTRAL IOWA

CITY           SKY/WX    TMP DP  RH WIND       PRES   REMARKS
AMES           CLOUDY    53  42  66 W17       30.03S
ANKENY *       CLOUDY    55  43  62 W13G20    30.05S
BOONE *        CLOUDY    54  43  66 W12G21    30.02F
DES MOINES     CLOUDY    58  42  55 W17G24    30.04S
GRINNELL*      CLOUDY    53  41  63 W18G30    30.05R
MARSHALLTOWN   CLOUDY    51  42  71 W20G28    30.01S
NEWTON *       CLOUDY    54  41  62 W22       30.04S
PELLA *        PTSUNNY   56  41  57 NW14G23   30.06S
PERRY *        CLOUDY    55  46  69 W16       30.04S
$$

IAZ004>006-015-016-023>025-035-036-212300-
   NORTH CENTRAL IOWA

CITY           SKY/WX    TMP DP  RH WIND       PRES   REMARKS
ALGONA *       CLOUDY    50  43  76 W20G29    29.98F
CLARION *      CLOUDY    50  45  81 W21G26    30.00S
ESTHERVILLE    CLOUDY    50  42  74 NW24G33   29.98S
FORT DODGE *   CLOUDY    52  41  66 W12G21    30.01F
MASON CITY     CLOUDY    48  40  73 W20G26    29.98S
FOREST CITY *  CLOUDY    50  37  62 W16G23    29.96F
WEBSTER CITY * CLOUDY    52  43  71 W20G25    29.99S
IOWA FALLS *   CLOUDY    51  43  76 W22       30.01S
$$

IAZ007>011-017>019-026>030-037>042-050>054-066-212300-
   NORTHEAST IOWA

CITY           SKY/WX    TMP DP  RH WIND       PRES   REMARKS
CEDAR RAPIDS   CLOUDY    50  42  74 W18G29    30.01R
CHARLES CITY * CLOUDY    48  43  81 W23       29.96S
CLINTON *      CLOUDY    52  42  69 W20       30.01S
DECORAH *      CLOUDY    46  41  81 W12G21    29.93S
DUBUQUE        CLOUDY    48  41  76 W14       29.97S
MONTICELLO *   CLOUDY    50  41  71 W18G25    29.99R
OELWEIN *      CLOUDY    50  43  76 W21G30    29.97S
WATERLOO       CLOUDY    51  40  65 W18G25    29.98S
$$

IAZ064-065-067-068-078-212300-
   EAST CENTRAL IOWA

CITY           SKY/WX    TMP DP  RH WIND       PRES   REMARKS
DAVENPORT      CLOUDY    52  41  66 W16       30.02F
IOWA CITY      CLOUDY    54  41  61 W16G25    30.05R
MT. PLEASANT * CLOUDY    55  42  60 W12G17    30.05S
MUSCATINE *    CLOUDY    55  41  58 W14G25    30.04S
QUAD CITIES    CLOUDY    54  41  61 W10       30.03R
$$

IAZ062-063-075>077-085>089-095>099-212300-
   SOUTHEAST IOWA

CITY           SKY/WX    TMP DP  RH WIND       PRES   REMARKS
BURLINGTON     CLOUDY    55  44  66 W15       30.05S
FAIRFIELD *    CLOUDY    55  43  62 W10G23    30.04S
FORT MADISON * CLOUDY    57  46  67 W7        30.06F
KEOKUK *       CLOUDY    57  45  62 W15G21    30.05F
OSKALOOSA *    CLOUDY    54  43  65 NW13G22   30.06R
OTTUMWA        CLOUDY    57  42  57 NW14      30.05R
WASHINGTON *   CLOUDY    55  43  62 W18       30.05S
$$

ABBREVIATIONS USED IN REMARKS
   TC - TEMPERATURES IN CELSIUS
  WCI - WIND CHILL INDEX
   HX - HEAT INDEX
  VSB - VISIBILITY
$$





USA.gov is the U.S. government's official web portal to all federal, state and local government web resources and services.